Home > Weather > Calgary > Past weeks

Flag for Canada Weather for the Past 2 Weeks in Calgary, Alberta, Canada

Now
50 °F

Cloudy.


Feels Like: 43 °F
Forecast: 37 / 51 °F
Wind: 22 mph from South

Location: Calgary International

Current Time: Apr 28, 2016 at 5:53:42 PM

Latest Report: Apr 28, 2016 at 5:00 PM


Visibility: 15 mi

Pressure: 30.16 "Hg (26.53 "Hg at 1063m altitude)

Humidity: 43%

Dew Point: 28 °F

Location of CalgaryLocation

Historic Weather in Calgary — Graph

°F

Calgary Temperature Yesterday

Maximum temperature yesterday: 54 °F (at 4:00 PM)
Minimum temperature yesterday: 36 °F (at 6:00 AM)
Average temperature yesterday: 43 °F

High & Low Weather Summary for the Past Weeks

 TemperatureHumidityPressure
High81 °F (Apr 19, 2:00 PM)100% (Apr 24, 9:00 PM)30.42 "Hg (Apr 24, 9:00 PM)
Low34 °F (Apr 14, 5:00 AM)9% (Apr 18, 5:00 PM)29.78 "Hg (Apr 13, 4:00 PM)
Average47 °F55%30.08 "Hg
* Reported Apr 13 4:00 PM — Apr 28 4:00 PM, Calgary, Weather by CustomWeather, © 2016

Note: Actual official high and low records may vary slightly from our data, if they occured in-between our weather recording intervals... More about our weather records

Advertising

Calgary Weather History for the Previous 24 Hours

Scroll right to see more
 ConditionsComfort  
Time TempWeatherWind HumidityBarometerVisibility
4:00 PM
Thu, Apr 28
52 °FMostly cloudy.20 mph44%30.18 "Hg15 mi
3:00 PM50 °FMostly cloudy.22 mph47%30.19 "Hg30 mi
2:00 PM50 °FCloudy.22 mph47%30.20 "Hg30 mi
1:00 PM48 °FPartly sunny.24 mph54%30.21 "Hg15 mi
12:00 PM45 °FPartly sunny.16 mph61%30.23 "Hg15 mi
11:00 AM43 °FMostly cloudy.15 mph66%30.22 "Hg15 mi
10:00 AM39 °FMostly cloudy.12 mph81%30.23 "Hg15 mi
9:00 AM37 °FFog.13 mph87%30.23 "Hg6 mi
8:00 AM37 °FFog.12 mph81%30.22 "Hg5 mi
7:00 AM36 °FFog.10 mph93%30.22 "Hg6 mi
6:00 AM37 °FFog.16 mph87%30.21 "Hg5 mi
5:00 AM37 °FOvercast.13 mph87%30.20 "Hg10 mi
4:00 AM37 °FPartly cloudy.9 mph87%30.20 "Hg15 mi
3:00 AM37 °FPartly cloudy.10 mph87%30.21 "Hg15 mi
2:00 AM37 °FPassing clouds.7 mph75%30.21 "Hg15 mi
1:00 AM37 °FPassing clouds.7 mph75%30.21 "Hg15 mi
12:00 AM39 °FPassing clouds.8 mph70%30.21 "Hg15 mi
11:00 PM
Wed, Apr 27
41 °FPartly cloudy.10 mph66%30.21 "Hg15 mi
10:00 PM43 °FPassing clouds.12 mph61%30.20 "Hg15 mi
9:00 PM45 °FQuite cool.15 mph53%30.19 "Hg20 mi
8:00 PM46 °FBroken clouds.13 mph50%30.17 "Hg20 mi
7:00 PM48 °FBroken clouds.16 mph50%30.15 "Hg15 mi
6:00 PM52 °FScattered clouds.15 mph47%30.15 "Hg15 mi
5:00 PM52 °FPartly sunny.14 mph47%30.14 "Hg15 mi
Weather by CustomWeather, © 2016

See weather overviewHow to use our weather pages